Date,TemperatureHighF,TemperatureAvgF,TemperatureLowF,DewpointHighF,DewpointAvgF,DewpointLowF,HumidityHigh,HumidityAvg,HumidityLow,PressureMaxIn,PressureMinIn,WindSpeedMaxMPH,WindSpeedAvgMPH,GustSpeedMaxMPH,PrecipitationSumIn
2013-2-1,16.0,14.1,11.5,13.3,11.1,8.4,89,87,83,30.25,29.93,9,4,15,0.00
2013-2-2,17.3,13.6,2.8,14.9,9.6,-0.7,90,84,70,30.16,30.00,8,2,10,0.00
2013-2-3,19.2,14.1,3.6,16.2,10.5,0.1,89,85,81,30.03,29.89,12,2,20,0.00
2013-2-4,21.6,16.3,6.5,16.0,12.4,3.2,89,84,74,30.02,29.89,8,2,10,0.00
2013-2-5,28.9,18.2,0.9,26.3,14.8,-2.6,90,86,77,30.01,29.77,10,3,17,0.00
2013-2-6,33.5,24.5,9.6,23.2,18.2,6.8,91,77,61,30.25,30.02,6,1,12,0.21
2013-2-7,33.0,30.1,27.6,30.1,26.0,21.0,94,85,73,30.20,29.85,9,3,13,0.07
2013-2-8,31.8,26.4,11.5,28.3,22.4,8.0,94,85,68,30.37,29.85,10,5,15,0.10
2013-2-9,33.2,18.4,-1.4,22.3,12.3,-5.3,91,78,62,30.43,30.20,6,1,12,0.10
2013-2-10,41.6,29.8,17.9,39.7,25.8,14.6,93,85,73,30.19,29.52,9,2,20,0.32
2013-2-11,44.2,35.4,30.3,42.0,30.8,23.5,93,83,73,29.87,29.47,15,8,36,0.08
2013-2-12,30.3,28.5,26.7,24.6,22.8,21.1,83,79,74,30.04,29.87,10,4,20,0.00
2013-2-13,38.1,30.4,23.2,29.6,25.4,20.3,90,82,67,29.90,29.71,8,2,12,0.02
2013-2-14,39.8,32.8,27.2,33.7,29.9,22.8,93,89,76,29.89,29.60,12,4,20,0.12
2013-2-15,27.7,23.9,20.6,22.9,17.0,13.4,88,75,59,30.14,29.89,13,5,17,0.00
2013-2-16,21.0,17.6,9.5,17.2,13.2,6.7,90,83,67,30.12,30.04,12,4,17,0.00
2013-2-17,25.3,13.1,-2.2,11.9,5.6,-6.1,88,73,52,30.24,30.12,5,1,9,0.01
2013-2-18,45.2,34.5,19.0,40.7,24.4,10.8,91,67,55,30.13,29.39,9,4,21,0.17
2013-2-19,42.7,24.9,16.6,40.2,21.9,12.9,91,88,83,29.98,29.33,12,7,24,0.09
2013-2-20,22.2,19.1,15.3,16.4,13.2,10.1,87,78,69,30.30,29.98,15,9,25,0.00
2013-2-21,26.1,22.6,20.3,18.9,16.1,13.6,86,76,69,30.38,30.15,18,7,25,0.00
2013-2-22,32.6,26.5,20.3,30.8,23.4,14.5,93,88,78,30.16,29.83,15,4,23,0.02
2013-2-23,31.6,28.7,24.9,28.5,24.6,21.3,92,85,72,29.89,29.81,9,4,17,0.00
2013-2-24,37.6,30.4,22.1,27.5,24.2,19.3,90,78,59,30.14,29.87,9,3,14,0.10
2013-2-25,41.0,27.7,13.3,28.2,20.2,10.4,92,75,52,30.22,30.07,9,1,10,0.01
2013-2-26,34.9,31.5,28.3,31.1,25.4,21.6,94,78,66,30.09,29.50,24,12,32,0.02
2013-2-27,35.6,33.6,32.5,33.8,32.0,31.0,94,94,93,29.60,29.47,9,4,14,0.19
2013-2-28,35.9,33.4,30.0,31.9,28.7,23.6,94,83,75,30.00,29.60,12,7,16,0.01